FW5866 Weather Reports


Display with metric or nautical units.
time (UTC)temp
F
wind
direction
speed
MPH
gust
MPH
rain 1hr
in
rain 24hr
in
rain mn
in
humidity
%
barometer
mb
20260502200049 71 196 5.0 15.0 0.00 0.86 0.13 64 1018.6
20260502194552 70 50 5.0 16.0 0.00 1.35 0.13 68 1018.7
20260502193101 70 87 3.0 13.0 0.00 1.35 0.13 70 1018.9
20260502191600 70 9 4.0 9.0 0.00 1.35 0.13 69 1018.9
20260502190044 70 338 4.0 12.0 0.00 1.35 0.13 70 1018.7
20260502184602 69 344 5.0 13.0 0.00 1.57 0.13 70 1018.8
20260502183051 69 296 5.0 14.0 0.00 1.57 0.13 74 1018.9
20260502181552 69 0 5.0 12.0 0.00 1.57 0.13 72 1019.1
20260502163051 66 22 4.0 11.0 0.00 2.14 0.13 84 1019.8
20260502161608 65 90 3.0 13.0 0.00 2.14 0.13 86 1019.7
20260502160113 65 320 3.0 9.0 0.00 2.14 0.13 86 1019.8
20260502151552 62 0 2.0 11.0 0.00 2.14 0.13 91 1019.5
20260502130105 55 41 2.0 8.0 0.00 2.14 0.13 95 1018.1
20260502123117 54 350 0.0 8.0 0.00 2.14 0.13 95 1017.4
20260502121546 53 91 1.0 6.0 0.00 2.14 0.13 95 1017.4
20260502114548 53 0 0.0 3.0 0.00 2.14 0.13 95 1016.9
20260502113051 53 70 0.0 3.0 0.00 2.14 0.13 95 1016.7
20260502111549 53 38 0.0 4.0 0.00 2.14 0.13 95 1016.7
20260502110050 53 53 1.0 7.0 0.00 2.14 0.13 95 1016.3
20260502104549 53 43 1.0 6.0 0.00 2.14 0.13 95 1016.2
20260502103049 53 67 3.0 11.0 0.00 2.14 0.13 95 1016.2
20260502101554 53 96 3.0 11.0 0.00 2.14 0.13 95 1016.1
20260502070049 54 36 2.0 9.0 0.04 2.14 0.11 96 1015.3
20260502064547 54 46 2.0 10.0 0.05 2.13 0.10 96 1015.8
20260502063055 54 58 1.0 10.0 0.09 2.13 0.10 95 1015.6
20260502061543 54 65 2.0 9.0 0.08 2.11 0.09 95 1016.0
20260502060049 54 0 0.0 10.0 0.07 2.09 0.07 96 1016.1
20260502054551 54 360 1.0 10.0 0.07 2.08 0.05 96 1015.2
20260502053050 55 93 1.0 12.0 0.04 2.04 0.01 96 1015.4
20260502051550 55 79 2.0 10.0 0.05 2.04 0.01 95 1014.4
20260502050048 55 96 2.0 8.0 0.05 2.03 0.00 95 1015.2
20260502044548 55 5 2.0 10.0 0.03 2.01 2.01 95 1015.6
20260502043103 55 53 2.0 11.0 0.02 2.00 2.00 95 1015.4
20260502041549 56 324 4.0 9.0 0.01 1.99 1.99 95 1015.7
20260502040107 56 5 2.0 11.0 0.00 1.98 1.98 96 1015.2
20260502034545 56 73 3.0 10.0 0.00 1.98 1.98 95 1015.3
20260502033048 56 12 2.0 10.0 0.00 1.98 1.98 96 1015.1
20260502031548 56 43 4.0 16.0 0.00 1.98 1.98 96 1014.5
20260502030054 56 0 2.0 11.0 0.00 1.98 1.98 96 1015.1
20260502024604 56 40 4.0 11.0 0.00 1.98 1.98 96 1014.4
20260502023046 56 134 4.0 14.0 0.00 1.98 1.98 96 1014.4
20260502021558 56 64 3.0 13.0 0.00 1.98 1.98 96 1014.2
20260502020051 57 58 4.0 12.0 0.00 1.98 1.98 96 1013.8
20260502014549 57 74 1.0 7.0 0.00 1.98 1.98 96 1013.6
20260502013045 57 56 0.0 9.0 0.00 1.98 1.98 96 1013.2
20260502011543 57 78 1.0 12.0 0.00 1.98 1.98 96 1012.5
20260502010051 57 28 4.0 14.0 0.01 1.98 1.98 96 1011.7
20260502004559 58 40 3.0 14.0 0.03 1.98 1.98 96 1011.0
20260502003045 58 53 3.0 14.0 0.07 1.98 1.98 96 1010.2
20260502001546 58 74 3.0 9.0 0.11 1.98 1.98 96 1010.8
20260502000046 58 85 4.0 10.0 0.19 1.97 1.97 96 1011.9
20260501234545 58 49 2.0 10.0 0.20 1.95 1.95 96 1012.9
20260501233049 58 0 0.0 10.0 0.20 1.91 1.91 96 1012.9
20260501231553 58 0 1.0 10.0 0.18 1.87 1.87 96 1013.1
20260501230047 58 0 3.0 13.0 0.09 1.78 1.78 96 1013.0
20260501224551 58 76 3.0 12.0 0.07 1.76 1.75 96 1011.8
20260501223044 58 0 1.0 11.0 0.09 1.72 1.71 95 1012.7
20260501221551 58 0 0.0 9.0 0.10 1.70 1.69 95 1013.5
20260501220059 59 69 4.0 11.0 0.12 1.70 1.69 95 1012.2
20260501214549 59 65 4.0 12.0 0.15 1.69 1.68 95 1012.1
20260501213054 59 0 3.0 12.0 0.17 1.63 1.62 95 1012.5
20260501211556 59 40 0.0 8.0 0.22 1.59 1.58 96 1012.4
20260501210055 59 137 2.0 11.0 0.27 1.58 1.57 95 1012.0
20260501204553 59 52 3.0 10.0 0.31 1.75 1.53 95 1011.9
20260501203050 60 47 3.0 9.0 0.36 1.67 1.45 95 1012.4
20260501201550 60 0 2.0 10.0 0.45 1.57 1.35 95 1013.1